Weather History for KHSP - November, 2012

Change the Weather History Date:

Thursday, November 15, 2012

  Actual Average Record
Temperature  
Mean Temperature 30 °F -  
Max Temperature 37 °F 44 °F 60 °F (2001)
Min Temperature 23 °F 31 °F 6 °F (1996)
Degree Days  
Heating Degree Days 35    
Moisture  
Dew Point 24 °F    
Average Humidity 82    
Maximum Humidity 100    
Minimum Humidity 65    
Precipitation  
Precipitation 0.00 in - - ()
Sea Level Pressure  
Sea Level Pressure 30.27 in    
Wind  
Wind Speed 5 mph (East)    
Max Wind Speed 8 mph    
Max Gust Speed -    
Visibility 10 miles    
Events      
Averages and records for this station are not official NWS values.
T = Trace of Precipitation, MM = Missing Value Source: NWS Daily Summary

Daily Weather History Graph

Daily Weather History Graph

Search for Another Location

Airport or City:

Trip Planner

Search our weather history database for the weather conditions in past years. The results will help you decide how hot, cold, wet, or windy it might be!

Date:

Astronomy

Nov. 15, 2012 Rise Set
Actual Time 7:00 AM EST 5:07 PM EST
Civil Twilight 6:32 AM EST 5:35 PM EST
Nautical Twilight 6:00 AM EST 6:07 PM EST
Astronomical Twilight 5:29 AM EST 6:38 PM EST
Moon 8:53 AM EST (11/15) 6:58 PM EST (11/15)
Length of Visible Light 11h 03m
Length of Day
10h 06m
Waxing Crescent, 5% of the Moon is Illuminated
Nov 15
Waxing Crescent
Nov 20
First Quarter
Nov 28
Full
Dec 6
Last Quarter
Dec 13
New

Hourly Weather History & Observations

Time (EST) Temp. Windchill Dew Point Humidity Pressure Visibility Wind Dir Wind Speed Gust Speed Precip Events Conditions
12:15 AM 24.8 °F 16.9 °F 24.8 °F 100% 30.32 in 7.0 mi East 6.9 mph - N/A   Clear
12:35 AM 24.8 °F 16.1 °F 24.8 °F 100% 30.30 in 10.0 mi East 8.1 mph - N/A   Clear
12:55 AM 24.8 °F 16.1 °F 24.8 °F 100% 30.30 in 10.0 mi East 8.1 mph - N/A   Clear
1:15 AM 24.8 °F 16.1 °F 24.8 °F 100% 30.29 in 10.0 mi East 8.1 mph - N/A   Clear
1:35 AM 24.8 °F 16.9 °F 24.8 °F 100% 30.29 in 10.0 mi East 6.9 mph - N/A   Clear
1:55 AM 24.8 °F 16.1 °F 23.0 °F 93% 30.29 in 10.0 mi East 8.1 mph - N/A   Clear
2:15 AM 24.8 °F 16.9 °F 23.0 °F 93% 30.29 in 10.0 mi East 6.9 mph - N/A   Clear
2:35 AM 24.8 °F 16.1 °F 23.0 °F 93% 30.28 in 10.0 mi ENE 8.1 mph - N/A   Clear
2:55 AM 24.8 °F 16.1 °F 23.0 °F 93% 30.26 in 10.0 mi ENE 8.1 mph - N/A   Clear
3:15 AM 24.8 °F 16.1 °F 23.0 °F 93% 30.25 in 10.0 mi ENE 8.1 mph - N/A   Clear
3:35 AM 26.6 °F 19.1 °F 21.2 °F 80% 30.26 in 10.0 mi ENE 6.9 mph - N/A   Clear
3:55 AM 24.8 °F 19.1 °F 21.2 °F 86% 30.27 in 10.0 mi ESE 4.6 mph - N/A   Clear
4:15 AM 24.8 °F 16.9 °F 21.2 °F 86% 30.26 in 10.0 mi ENE 6.9 mph - N/A   Clear
4:35 AM 24.8 °F 19.1 °F 21.2 °F 86% 30.27 in 10.0 mi East 4.6 mph - N/A   Clear
4:55 AM 24.8 °F 20.5 °F 21.2 °F 86% 30.27 in 10.0 mi East 3.5 mph - N/A   Clear
5:15 AM 23.0 °F 18.4 °F 21.2 °F 93% 30.27 in 10.0 mi East 3.5 mph - N/A   Clear
5:55 AM 23.0 °F 17.0 °F 21.2 °F 93% 30.26 in 10.0 mi East 4.6 mph - N/A   Clear
6:15 AM 23.0 °F 18.4 °F 21.2 °F 93% 30.27 in 10.0 mi ENE 3.5 mph - N/A   Clear
6:35 AM 23.0 °F 17.0 °F 21.2 °F 93% 30.27 in 10.0 mi East 4.6 mph - N/A   Clear
6:55 AM 23.0 °F 15.8 °F 21.2 °F 93% 30.28 in 10.0 mi East 5.8 mph - N/A   Clear
7:15 AM 24.8 °F 17.9 °F 21.2 °F 86% 30.28 in 10.0 mi East 5.8 mph - N/A   Clear
7:35 AM 24.8 °F 20.5 °F 21.2 °F 86% 30.28 in 10.0 mi East 3.5 mph - N/A   Clear
7:55 AM 26.6 °F - 24.8 °F 93% 30.28 in 10.0 mi Calm Calm - N/A   Clear
8:15 AM 28.4 °F - 24.8 °F 86% 30.28 in 10.0 mi Calm Calm - N/A   Clear
8:35 AM 30.2 °F 26.7 °F 24.8 °F 80% 30.29 in 10.0 mi East 3.5 mph - N/A   Clear
8:55 AM 30.2 °F 25.4 °F 24.8 °F 80% 30.29 in 10.0 mi ESE 4.6 mph - N/A   Scattered Clouds
9:15 AM 32.0 °F 27.5 °F 24.8 °F 75% 30.29 in 10.0 mi SE 4.6 mph - N/A   Scattered Clouds
9:35 AM 33.8 °F 30.8 °F 24.8 °F 70% 30.29 in 10.0 mi ESE 3.5 mph - N/A   Clear
11:55 AM 37.4 °F - 26.6 °F 65% 30.27 in 10.0 mi Calm Calm - N/A   Clear
2:55 PM 37.4 °F - 26.6 °F 65% 30.24 in 10.0 mi Calm Calm - N/A   Clear
3:15 PM 37.4 °F - 26.6 °F 65% 30.24 in 10.0 mi Calm Calm - N/A   Clear
3:35 PM 35.6 °F - 26.6 °F 70% 30.24 in 10.0 mi Calm Calm - N/A   Clear
3:55 PM 35.6 °F - 26.6 °F 70% 30.24 in 10.0 mi Calm Calm - N/A   Clear
4:15 PM 35.6 °F - 26.6 °F 70% 30.24 in 10.0 mi Calm Calm - N/A   Clear
4:35 PM 33.8 °F - 24.8 °F 70% 30.24 in 10.0 mi Calm Calm - N/A   Clear
4:55 PM 35.6 °F - 26.6 °F 70% 30.24 in 10.0 mi Calm Calm - N/A   Clear
5:15 PM 33.8 °F - 24.8 °F 70% 30.24 in 10.0 mi Calm Calm - N/A   Clear
5:35 PM 33.8 °F - 24.8 °F 70% 30.25 in 10.0 mi Calm Calm - N/A   Clear
5:55 PM 33.8 °F - 26.6 °F 75% 30.26 in 10.0 mi Calm Calm - N/A   Clear
6:15 PM 33.8 °F - 24.8 °F 70% 30.25 in 10.0 mi Calm Calm - N/A   Clear
6:35 PM 35.6 °F - 24.8 °F 65% 30.25 in 10.0 mi Calm Calm - N/A   Clear
10:35 PM 32.0 °F 27.5 °F 24.8 °F 75% 30.25 in 10.0 mi West 4.6 mph - N/A   Clear
10:55 PM 32.0 °F 28.7 °F 24.8 °F 75% 30.25 in 10.0 mi West 3.5 mph - N/A   Clear
11:15 PM 33.8 °F - 24.8 °F 70% 30.25 in 10.0 mi Calm Calm - N/A   Clear
11:35 PM 33.8 °F 29.6 °F 24.8 °F 70% 30.25 in 10.0 mi West 4.6 mph - N/A   Clear
11:55 PM 33.8 °F 29.6 °F 24.8 °F 70% 30.25 in 10.0 mi West 4.6 mph - N/A   Clear